Time,TemperatureF,DewpointF,PressureIn,WindDirection,WindDirectionDegrees,WindSpeedMPH,WindSpeedGustMPH,Humidity,HourlyPrecipIn,Conditions,Clouds,dailyrainin,SoftwareType,DateUTC
2013-09-16 00:00:00,57.8,51.3,30.03,West,262,1.0,1.0,79,0.00,,,0.00,Wunderground v.1.15,2013-09-16 04:00:00,
2013-09-16 00:30:00,57.7,51.2,30.03,WSW,252,0.0,0.0,79,0.00,,,0.00,Wunderground v.1.15,2013-09-16 04:30:00,
2013-09-16 01:00:00,57.4,51.3,30.03,West,274,1.0,1.0,80,0.00,,,0.00,Wunderground v.1.15,2013-09-16 05:00:00,
2013-09-16 01:30:00,57.2,51.4,30.03,West,278,0.0,0.0,81,0.00,,,0.00,Wunderground v.1.15,2013-09-16 05:30:00,
2013-09-16 02:00:00,57.0,51.2,30.02,WSW,255,0.0,0.0,81,0.00,,,0.00,Wunderground v.1.15,2013-09-16 06:00:00,
2013-09-16 02:30:00,57.1,51.0,30.01,West,271,0.0,0.0,80,0.00,,,0.00,Wunderground v.1.15,2013-09-16 06:30:00,
2013-09-16 03:00:00,56.7,50.9,30.00,WSW,256,0.0,0.0,81,0.00,,,0.00,Wunderground v.1.15,2013-09-16 07:00:00,
2013-09-16 03:30:00,56.6,50.8,30.01,West,271,0.0,0.0,81,0.00,,,0.00,Wunderground v.1.15,2013-09-16 07:30:00,
2013-09-16 04:00:00,56.7,50.9,30.01,West,269,0.0,1.0,81,0.00,,,0.00,Wunderground v.1.15,2013-09-16 08:00:00,
2013-09-16 04:30:00,56.4,50.6,30.01,West,259,0.0,0.0,81,0.00,,,0.00,Wunderground v.1.15,2013-09-16 08:30:00,
2013-09-16 05:00:00,56.1,50.7,30.00,West,271,0.0,0.0,82,0.00,,,0.00,Wunderground v.1.15,2013-09-16 09:00:00,
2013-09-16 05:30:00,56.1,51.0,30.01,WSW,257,1.0,1.0,83,0.00,,,0.00,Wunderground v.1.15,2013-09-16 09:30:00,
2013-09-16 06:00:00,56.1,50.7,30.01,WSW,255,0.0,0.0,82,0.00,,,0.00,Wunderground v.1.15,2013-09-16 10:00:00,
2013-09-16 06:30:00,56.0,50.9,30.01,WSW,255,0.0,0.0,83,0.00,,,0.00,Wunderground v.1.15,2013-09-16 10:30:00,
2013-09-16 07:00:00,56.8,51.4,30.02,West,259,1.0,1.0,82,0.00,,,0.00,Wunderground v.1.15,2013-09-16 11:00:00,
2013-09-16 07:30:00,57.4,51.6,30.03,West,266,1.0,1.0,81,0.00,,,0.00,Wunderground v.1.15,2013-09-16 11:30:00,
2013-09-16 08:00:00,58.1,52.3,30.03,West,265,0.0,0.0,81,0.00,,,0.00,Wunderground v.1.15,2013-09-16 12:00:00,
2013-09-16 08:30:00,59.7,52.1,30.04,West,270,2.0,2.0,76,0.00,,,0.00,Wunderground v.1.15,2013-09-16 12:30:00,
2013-09-16 09:00:00,60.0,52.1,30.04,West,263,0.0,0.0,75,0.00,,,0.00,Wunderground v.1.15,2013-09-16 13:00:00,
2013-09-16 09:30:00,60.3,52.7,30.04,West,266,1.0,1.0,76,0.00,,,0.00,Wunderground v.1.15,2013-09-16 13:30:00,
2013-09-16 10:00:00,60.2,53.3,30.04,WSW,239,1.0,1.0,78,0.00,,,0.00,Wunderground v.1.15,2013-09-16 14:00:00,
2013-09-16 10:30:00,59.9,53.0,30.04,West,277,1.0,1.0,78,0.00,,,0.00,Wunderground v.1.15,2013-09-16 14:30:00,
2013-09-16 11:00:00,59.5,53.3,30.04,WNW,284,0.0,0.0,80,0.00,,,0.00,Wunderground v.1.15,2013-09-16 15:00:00,
2013-09-16 11:30:00,59.5,53.3,30.03,West,263,1.0,1.0,80,0.00,,,0.00,Wunderground v.1.15,2013-09-16 15:30:00,
2013-09-16 12:00:00,59.9,54.1,30.04,WSW,246,0.0,0.0,81,0.00,,,0.00,Wunderground v.1.15,2013-09-16 16:00:00,
2013-09-16 12:30:00,60.1,53.6,30.03,WSW,255,2.0,2.0,79,0.00,,,0.00,Wunderground v.1.15,2013-09-16 16:30:00,
2013-09-16 13:00:00,61.7,54.1,30.02,WNW,284,1.0,3.0,76,0.00,,,0.00,Wunderground v.1.15,2013-09-16 17:00:00,
2013-09-16 13:30:00,65.4,54.2,30.01,WSW,237,3.0,4.0,67,0.00,,,0.00,Wunderground v.1.15,2013-09-16 17:30:00,
2013-09-16 14:00:00,67.3,54.7,30.01,West,267,2.0,6.0,64,0.00,,,0.00,Wunderground v.1.15,2013-09-16 18:00:00,
2013-09-16 14:30:00,66.6,54.9,30.01,West,274,3.0,3.0,66,0.00,,,0.00,Wunderground v.1.15,2013-09-16 18:30:00,
2013-09-16 15:00:00,68.9,53.5,30.00,WNW,285,2.0,2.0,58,0.00,,,0.00,Wunderground v.1.15,2013-09-16 19:00:00,
2013-09-16 15:30:00,68.5,54.1,30.00,WSW,237,2.0,2.0,60,0.00,,,0.00,Wunderground v.1.15,2013-09-16 19:30:00,
2013-09-16 16:00:00,67.4,53.9,30.01,WNW,294,1.0,1.0,62,0.00,,,0.00,Wunderground v.1.15,2013-09-16 20:00:00,
2013-09-16 16:30:00,66.6,53.2,30.01,West,264,3.0,3.0,62,0.00,,,0.00,Wunderground v.1.15,2013-09-16 20:30:00,
2013-09-16 17:00:00,68.2,55.1,30.02,West,276,1.0,1.0,63,0.00,,,0.00,Wunderground v.1.15,2013-09-16 21:00:00,
2013-09-16 17:30:00,66.2,53.2,30.03,WNW,294,2.0,2.0,63,0.00,,,0.00,Wunderground v.1.15,2013-09-16 21:30:00,
2013-09-16 18:00:00,64.1,52.1,30.04,SW,224,2.0,8.0,65,0.00,,,0.00,Wunderground v.1.15,2013-09-16 22:00:00,
2013-09-16 18:30:00,63.0,51.5,30.05,NW,311,2.0,2.0,66,0.00,,,0.00,Wunderground v.1.15,2013-09-16 22:30:00,
2013-09-16 19:00:00,61.1,48.4,30.07,West,267,2.0,2.0,63,0.00,,,0.00,Wunderground v.1.15,2013-09-16 23:00:00,
2013-09-16 19:30:00,59.4,48.0,30.09,West,274,3.0,4.0,66,0.00,,,0.00,Wunderground v.1.15,2013-09-16 23:30:00,
2013-09-16 20:00:00,57.9,45.4,30.11,WNW,289,2.0,2.0,63,0.00,,,0.00,Wunderground v.1.15,2013-09-17 00:00:00,
2013-09-16 20:30:00,56.5,43.6,30.13,WNW,288,3.0,3.0,62,0.00,,,0.00,Wunderground v.1.15,2013-09-17 00:30:00,
2013-09-16 21:00:00,55.1,43.1,30.15,WNW,295,3.0,3.0,64,0.00,,,0.00,Wunderground v.1.15,2013-09-17 01:00:00,
2013-09-16 21:30:00,54.0,42.9,30.16,West,267,3.0,8.0,66,0.00,,,0.00,Wunderground v.1.15,2013-09-17 01:30:00,
2013-09-16 22:00:00,53.0,41.9,30.18,SW,229,3.0,4.0,66,0.00,,,0.00,Wunderground v.1.15,2013-09-17 02:00:00,
2013-09-16 22:30:00,52.1,40.7,30.20,West,260,3.0,8.0,65,0.00,,,0.00,Wunderground v.1.15,2013-09-17 02:30:00,
2013-09-16 23:30:00,50.1,40.7,30.22,West,280,1.0,1.0,70,0.00,,,0.00,Wunderground v.1.15,2013-09-17 03:30:00,